Location: *
(51.4660°N, 0.3360°W)
Time: 23:05:59
(UTC+00:00)

Cosmos 2227 Rocket - Pass Details

Date: 19 September 2019
Orbit: 837 x 847 km, 71.0° (Epoch: 17 October)

Event Time Altitude Azimuth Distance (km) Brightness Sun altitude
Rises 18:48:21 0° 158° (SSE) 3,384 5.0 -7.2°
Reaches altitude 10° 18:51:32 10° 139° (SE) 2,457 4.1 -7.6°
Maximum altitude 18:55:10 18° 99° (E) 1,970 3.5 -8.2°
Drops below altitude 10° 18:58:49 10° 59° (ENE) 2,473 4.2 -8.8°
Sets 19:02:01 0° 41° (NE) 3,415 5.1 -9.2°
